Home   Weather   Malanje   Past weeks
Flag for Angola

Past Weather in Malanje, Angola — Yesterday and Last 2 Weeks

Now
77 °F

Clear.


Feels Like: 79 °F
Forecast: 86 / 55 °F
Wind: 8 mph from West

Location: Luanda Airport

Current Time: Aug 19, 2019 at 5:22:47 pm

Latest Report: Aug 19, 2019 at 4:00 pm


Visibility: 6 mi

Pressure: 29.86 "Hg (26.16 "Hg at 1154m altitude)

Humidity: 74%

Dew Point: 68 °F

Location of MalanjeLocation

Past Weather in Malanje — Graph

°F

Malanje Temperature Yesterday

Maximum temperature yesterday: 79 °F (at 1:00 pm)
Minimum temperature yesterday: 66 °F (at 3:00 am)
Average temperature yesterday: 72 °F

High & Low Weather Summary for the Past Weeks

 TemperatureHumidityPressure
High82 °F (Aug 15, 12:00 pm)100% (Aug 5, 12:00 am)30.09 "Hg (Aug 5, 12:00 am)
Low66 °F (Aug 9, 2:00 am)58% (Aug 15, 12:00 pm)29.86 "Hg (Aug 15, 3:00 pm)
Average72 °F87%29.98 "Hg
* Reported Aug 4 4:00 pm — Aug 19 4:00 pm, Malanje. Weather by CustomWeather, © 2019

Note: Actual official high and low records may vary slightly from our data, if they occured in-between our weather recording intervals... More about our weather records

Advertising

Malanje Weather History for the Previous 24 Hours

Scroll right to see more
 ConditionsComfort  
Time TempWeatherWind HumidityBarometerVisibility
4:00 pm
Mon, Aug 19
77 °FClear.8 mph74%29.86 "Hg6 mi
3:00 pm79 °FPartly sunny.7 mph70%29.86 "Hg6 mi
2:00 pm77 °FPartly sunny.7 mph74%29.89 "Hg6 mi
1:00 pm77 °FPartly sunny.7 mph74%29.92 "Hg6 mi
12:00 pm77 °FPartly sunny.6 mph74%29.95 "Hg6 mi
11:00 am75 °FPartly sunny.6 mph78%29.95 "Hg4 mi
10:00 am73 °FPartly sunny.9 mph78%29.98 "Hg4 mi
9:00 am72 °FFog.7 mph83%29.98 "Hg3 mi
8:00 am70 °FFog.6 mph88%29.98 "Hg2 mi
7:00 am68 °FFog.3 mph94%29.95 "Hg2 mi
6:00 am68 °FPassing clouds.3 mph94%29.95 "Hg4 mi
5:00 am68 °FPassing clouds.3 mph94%29.92 "Hg5 mi
4:00 am70 °FPassing clouds.6 mph94%29.92 "Hg5 mi
3:00 am68 °FPassing clouds.6 mph100%29.92 "Hg5 mi
2:00 am68 °FPassing clouds.6 mph100%29.95 "Hg5 mi
1:00 am68 °FClear.7 mph100%29.92 "Hg5 mi
12:00 am70 °FClear.7 mph94%29.95 "Hg5 mi
11:00 pm
Sun, Aug 18
70 °FClear.8 mph94%29.95 "Hg5 mi
10:00 pm70 °FClear.9 mph94%29.95 "Hg5 mi
9:00 pm70 °FClear.9 mph94%29.92 "Hg5 mi
8:00 pm72 °FClear.8 mph88%29.89 "Hg5 mi
6:00 pm73 °FClear.6 mph83%29.86 "Hg6 mi
5:00 pm73 °FClear.7 mph83%29.86 "Hg6 mi
Weather by CustomWeather, © 2019

See weather overview